Total_Precipitation_Accumulation
0.43 0.55 0.77 1.03 1.50 2.17 2.81 3.06 2.85 2.23 1.82 1.57 1.44 1.26 1.11 1.01 0.94 0.87 0.78 0.69 0.69 0.64 0.64 0.61 0.63 0.69 0.68 0.68 0.82 0.95 0.95 0.78 0.94 1.01 0.79 0.64 0.57 0.56 0.56 0.50 0.48 0.47 0.48
0.49 0.76 1.09 1.49 1.93 2.23 2.43 2.37 2.01 1.45 1.11 0.90 0.77 0.64 0.55 0.54 0.54 0.51 0.51 0.53 0.54 0.54 0.53 0.50 0.48 0.48 0.52 0.53 0.59 0.70 0.70 0.62 0.73 0.82 0.75 0.55 0.48 0.43 0.33 0.36 0.35 0.34 0.42
0.86 1.39 1.85 2.04 2.02 1.95 1.68 1.28 0.94 0.69 0.59 0.46 0.39 0.30 0.25 0.24 0.25 0.27 0.30 0.33 0.33 0.33 0.33 0.32 0.32 0.34 0.39 0.42 0.48 0.56 0.59 0.52 0.51 0.62 0.72 0.55 0.40 0.36 0.33 0.33 0.35 0.40 0.43
1.12 1.59 1.89 1.84 1.60 1.28 0.89 0.59 0.47 0.38 0.33 0.28 0.27 0.25 0.20 0.19 0.20 0.21 0.23 0.23 0.22 0.23 0.23 0.21 0.21 0.22 0.25 0.33 0.35 0.44 0.54 0.53 0.43 0.46 0.55 0.54 0.50 0.43 0.36 0.35 0.34 0.39 0.40
0.85 0.94 0.96 0.90 0.73 0.53 0.48 0.45 0.40 0.40 0.38 0.32 0.29 0.25 0.21 0.19 0.20 0.21 0.21 0.24 0.25 0.23 0.23 0.22 0.20 0.21 0.21 0.24 0.28 0.36 0.46 0.52 0.47 0.44 0.49 0.58 0.56 0.48 0.43 0.35 0.37 0.43 0.36
0.49 0.41 0.31 0.26 0.24 0.22 0.23 0.25 0.28 0.36 0.40 0.38 0.32 0.29 0.24 0.21 0.19 0.18 0.18 0.20 0.23 0.25 0.25 0.25 0.26 0.26 0.26 0.26 0.26 0.28 0.33 0.45 0.53 0.53 0.51 0.55 0.56 0.46 0.43 0.34 0.31 0.39 0.39
0.35 0.36 0.31 0.23 0.19 0.15 0.14 0.13 0.14 0.17 0.20 0.23 0.24 0.24 0.24 0.22 0.19 0.17 0.15 0.16 0.17 0.20 0.22 0.23 0.25 0.27 0.30 0.30 0.28 0.28 0.28 0.36 0.46 0.49 0.52 0.52 0.51 0.54 0.55 0.50 0.41 0.43 0.47
0.21 0.24 0.22 0.18 0.14 0.10 0.08 0.06 0.07 0.08 0.08 0.09 0.10 0.12 0.15 0.16 0.18 0.21 0.17 0.17 0.18 0.19 0.20 0.20 0.19 0.22 0.27 0.31 0.34 0.32 0.33 0.36 0.38 0.38 0.52 0.57 0.51 0.61 0.65 0.68 0.71 0.63 0.63
0.10 0.10 0.09 0.07 0.06 0.05 0.05 0.04 0.03 0.03 0.03 0.04 0.05 0.06 0.09 0.13 0.15 0.17 0.17 0.17 0.22 0.21 0.20 0.20 0.20 0.22 0.24 0.28 0.32 0.32 0.34 0.37 0.38 0.41 0.51 0.59 0.65 0.69 0.66 0.75 0.83 0.85 0.77
0.06 0.06 0.05 0.04 0.03 0.02 0.02 0.02 0.02 0.02 0.01 0.01 0.02 0.02 0.04 0.07 0.10 0.11 0.13 0.15 0.16 0.19 0.20 0.20 0.19 0.20 0.21 0.23 0.26 0.28 0.35 0.42 0.47 0.54 0.59 0.61 0.67 0.76 0.69 0.75 0.81 0.84 0.88
0.03 0.03 0.02 0.02 0.02 0.01 0.01 0.02 0.02 0.02 0.02 0.01 0.01 0.01 0.03 0.04 0.06 0.10 0.13 0.15 0.13 0.13 0.14 0.16 0.18 0.19 0.21 0.25 0.31 0.34 0.38 0.48 0.60 0.69 0.72 0.75 0.77 0.80 0.79 0.85 0.86 0.81 0.89
0.01 0.01 0.01 0.01 0.01 0.01 0.01 0.02 0.02 0.02 0.02 0.02 0.02 0.01 0.01 0.02 0.04 0.07 0.10 0.11 0.12 0.12 0.12 0.13 0.14 0.14 0.15 0.21 0.31 0.42 0.43 0.46 0.55 0.77 0.99 1.01 1.01 0.92 0.84 0.92 0.91 0.87 1.00
0.00 0.00 0.00 0.01 0.01 0.01 0.02 0.02 0.02 0.01 0.01 0.01 0.01 0.01 0.01 0.01 0.02 0.04 0.05 0.07 0.09 0.11 0.12 0.13 0.13 0.12 0.12 0.14 0.22 0.35 0.40 0.49 0.62 0.79 0.92 1.04 1.16 1.05 0.95 0.93 0.93 0.96 1.05
0.00 0.00 0.00 0.00 0.00 0.01 0.01 0.01 0.00 0.00 0.00 0.01 0.01 0.01 0.02 0.02 0.02 0.02 0.03 0.04 0.07 0.10 0.12 0.14 0.14 0.14 0.12 0.12 0.18 0.26 0.33 0.47 0.65 0.71 0.66 0.77 1.03 1.14 1.06 0.94 0.90 0.94 0.99
0.00 0.00 0.00 0.01 0.01 0.01 0.01 0.02 0.02 0.03 0.03 0.04 0.04 0.05 0.05 0.06 0.06 0.06 0.06 0.06 0.07 0.08 0.12 0.15 0.15 0.15 0.13 0.11 0.18 0.27 0.23 0.28 0.37 0.41 0.41 0.46 0.65 0.92 1.08 1.03 0.93 0.92 0.90
0.03 0.04 0.04 0.05 0.04 0.04 0.04 0.04 0.04 0.04 0.05 0.05 0.05 0.04 0.05 0.05 0.06 0.06 0.06 0.06 0.08 0.12 0.17 0.20 0.20 0.20 0.14 0.11 0.13 0.16 0.18 0.21 0.24 0.27 0.31 0.31 0.32 0.43 0.66 0.86 0.97 1.02 0.96
0.10 0.07 0.05 0.03 0.02 0.01 0.01 0.01 0.01 0.01 0.02 0.03 0.03 0.04 0.05 0.05 0.06 0.06 0.07 0.09 0.12 0.16 0.21 0.25 0.27 0.29 0.28 0.18 0.12 0.09 0.12 0.17 0.20 0.26 0.29 0.23 0.20 0.28 0.37 0.50 0.64 0.78 0.84
0.03 0.01 0.00 0.00 0.00 0.00 0.00 0.01 0.01 0.01 0.02 0.02 0.03 0.04 0.06 0.07 0.08 0.11 0.13 0.17 0.21 0.23 0.27 0.30 0.33 0.39 0.37 0.26 0.17 0.14 0.12 0.17 0.22 0.27 0.30 0.29 0.27 0.29 0.35 0.41 0.44 0.50 0.57
0.00 0.00 0.00 0.00 0.00 0.01 0.01 0.01 0.01 0.02 0.02 0.04 0.07 0.09 0.11 0.13 0.16 0.20 0.24 0.29 0.31 0.31 0.32 0.34 0.39 0.43 0.47 0.35 0.21 0.18 0.19 0.25 0.26 0.28 0.30 0.32 0.31 0.28 0.23 0.31 0.36 0.38 0.43
0.00 0.00 0.00 0.00 0.01 0.01 0.02 0.02 0.02 0.03 0.04 0.05 0.08 0.11 0.17 0.23 0.26 0.30 0.35 0.38 0.41 0.40 0.39 0.37 0.42 0.47 0.54 0.46 0.26 0.21 0.26 0.33 0.35 0.41 0.42 0.35 0.31 0.29 0.20 0.26 0.33 0.33 0.37
0.00 0.00 0.00 0.00 0.01 0.02 0.03 0.04 0.06 0.06 0.06 0.07 0.09 0.12 0.18 0.28 0.31 0.36 0.41 0.46 0.48 0.49 0.50 0.47 0.47 0.53 0.58 0.56 0.33 0.24 0.26 0.38 0.50 0.52 0.53 0.51 0.35 0.23 0.19 0.22 0.30 0.29 0.35
0.00 0.00 0.00 0.00 0.01 0.03 0.06 0.08 0.10 0.09 0.10 0.12 0.14 0.15 0.22 0.30 0.32 0.42 0.47 0.52 0.57 0.60 0.60 0.62 0.60 0.61 0.62 0.56 0.45 0.27 0.23 0.35 0.55 0.65 0.69 0.69 0.50 0.33 0.25 0.23 0.25 0.24 0.26
0.00 0.00 0.00 0.01 0.02 0.04 0.08 0.12 0.13 0.13 0.15 0.17 0.17 0.21 0.25 0.37 0.52 0.57 0.54 0.58 0.64 0.63 0.63 0.68 0.71 0.72 0.73 0.65 0.45 0.33 0.24 0.30 0.49 0.66 0.75 0.70 0.58 0.49 0.39 0.32 0.28 0.27 0.27
0.00 0.00 0.01 0.02 0.04 0.06 0.08 0.12 0.15 0.19 0.22 0.22 0.21 0.24 0.30 0.43 0.67 0.81 0.74 0.68 0.68 0.68 0.69 0.67 0.69 0.76 0.82 0.80 0.63 0.46 0.34 0.37 0.51 0.62 0.65 0.65 0.66 0.65 0.61 0.49 0.40 0.32 0.34
0.01 0.02 0.03 0.05 0.06 0.07 0.09 0.13 0.18 0.25 0.28 0.27 0.24 0.25 0.32 0.46 0.68 0.86 0.85 0.72 0.70 0.67 0.66 0.65 0.66 0.65 0.65 0.63 0.55 0.47 0.48 0.54 0.62 0.64 0.73 0.75 0.81 0.85 0.84 0.77 0.66 0.57 0.53
0.03 0.05 0.07 0.08 0.10 0.12 0.15 0.17 0.22 0.30 0.36 0.34 0.30 0.31 0.35 0.46 0.67 0.89 0.97 0.76 0.59 0.56 0.54 0.48 0.47 0.45 0.39 0.35 0.37 0.35 0.36 0.43 0.49 0.51 0.68 0.80 0.88 0.96 0.96 0.95 0.87 0.77 0.68